Montgomery, AL

1:27 PM CDT on March 24, 2017 (GMT -0500)
Montgomery Regional

Weather History for KMGM - June, 2013

Change the Weather History Date:

Wednesday, June 5, 2013

  Actual Average Record
Temperature  
Mean Temperature 82 °F 77 °F  
Max Temperature 92 °F 88 °F 103 °F (1985)
Min Temperature 71 °F 66 °F 53 °F (1954)
Cooling Degree Days 17 12  
Month to date cooling degree days 68 59  
Year to date cooling degree days 427 398  
Since 1 June cooling degree days 68 59  
Growing Degree Days 30 (Base 50)    
Moisture  
Dew Point 68 °F    
Average Humidity 66    
Maximum Humidity 87    
Minimum Humidity 44    
Precipitation  
Precipitation T in 0.12 in 1.72 in (1886)
Month to date precipitation T 0.57  
Year to date precipitation 25.71 24.01  
Sea Level Pressure  
Sea Level Pressure 29.94 in    
Wind  
Wind Speed 7 mph (East)    
Max Wind Speed 16 mph    
Max Gust Speed 21 mph    
Visibility 8 miles    
Events Rain , Thunderstorm    
T = Trace of Precipitation, MM = Missing Value Source: NWS Daily Summary

Daily Weather History Graph

Daily Weather History Graph

Search for Another Location

Airport or City:

Trip Planner

Search our weather history database for the weather conditions in past years. The results will help you decide how hot, cold, wet, or windy it might be!

Date:

Astronomy

Jun. 05, 2013 Rise Set
Actual Time 5:38 AM CDT 7:49 PM CDT
Civil Twilight 5:10 AM CDT 8:17 PM CDT
Nautical Twilight 4:36 AM CDT 8:52 PM CDT
Astronomical Twilight 3:59 AM CDT 9:29 PM CDT
Moon 3:34 AM CDT (6/5) 5:22 PM CDT (6/5)
Length of Visible Light 15h 07m
Length of Day
14h 11m
Waning Crescent, 8% of the Moon is Illuminated
Jun 5
Waning Crescent
Jun 8
New
Jun 16
First Quarter
Jun 23
Full
Jun 29
Last Quarter

Hourly Weather History & Observations

Time (CDT) Temp. Heat Index Dew Point Humidity Pressure Visibility Wind Dir Wind Speed Gust Speed Precip Events Conditions
12:53 AM 75.9 °F - 72.0 °F 87% 29.96 in 10.0 mi Calm Calm - N/A   Mostly Cloudy
1:53 AM 75.0 °F - 72.0 °F 90% 29.96 in 10.0 mi Calm Calm - 0.00 in   Mostly Cloudy
2:53 AM 75.0 °F - 72.0 °F 90% 29.98 in 10.0 mi ESE 9.2 mph - N/A   Overcast
3:11 AM 75.2 °F - 71.6 °F 89% 29.99 in 10.0 mi East 12.7 mph 18.4 mph N/A   Overcast
3:19 AM 73.4 °F - 69.8 °F 88% 29.99 in 10.0 mi East 16.1 mph - N/A   Overcast
3:27 AM 73.4 °F - 69.8 °F 88% 29.99 in 10.0 mi ESE 12.7 mph - N/A   Overcast
3:36 AM 73.4 °F - 68.0 °F 83% 29.99 in 10.0 mi ESE 10.4 mph - N/A   Overcast
3:53 AM 72.0 °F - 66.9 °F 84% 29.99 in 10.0 mi ESE 12.7 mph - N/A   Overcast
4:16 AM 71.6 °F - 66.2 °F 83% 29.99 in 10.0 mi SE 5.8 mph - N/A   Mostly Cloudy
4:53 AM 71.1 °F - 66.9 °F 87% 29.96 in 10.0 mi WSW 6.9 mph - N/A   Partly Cloudy
5:25 AM 71.6 °F - 68.0 °F 88% 29.98 in 10.0 mi Variable 5.8 mph - N/A   Partly Cloudy
5:53 AM 71.1 °F - 66.9 °F 87% 29.98 in 10.0 mi South 3.5 mph - N/A   Clear
6:53 AM 73.0 °F - 68.0 °F 84% 29.97 in 10.0 mi Calm Calm - N/A   Clear
7:53 AM 75.9 °F - 66.9 °F 74% 29.95 in 10.0 mi NW 6.9 mph - N/A   Clear
8:53 AM 81.0 °F 84.1 °F 69.1 °F 67% 29.97 in 10.0 mi ENE 6.9 mph - N/A   Clear
9:53 AM 82.0 °F 85.5 °F 69.1 °F 65% 29.98 in 10.0 mi SE 6.9 mph - N/A   Partly Cloudy
10:53 AM 84.0 °F 87.8 °F 69.1 °F 61% 30.00 in 10.0 mi ESE 11.5 mph - N/A   Partly Cloudy
11:53 AM 86.0 °F 90.1 °F 69.1 °F 57% 29.99 in 10.0 mi Variable 5.8 mph - N/A   Partly Cloudy
12:53 PM 87.1 °F 90.6 °F 68.0 °F 53% 29.96 in 10.0 mi SE 8.1 mph - N/A   Partly Cloudy
1:53 PM 89.1 °F 92.1 °F 66.9 °F 48% 29.91 in 10.0 mi Variable 5.8 mph - N/A   Partly Cloudy
2:53 PM 90.0 °F 92.8 °F 66.9 °F 46% 29.88 in 10.0 mi SE 10.4 mph - N/A   Partly Cloudy
3:53 PM 90.0 °F 92.8 °F 66.9 °F 46% 29.87 in 10.0 mi SE 8.1 mph - N/A   Clear
4:53 PM 91.0 °F 93.8 °F 66.0 °F 44% 29.86 in 10.0 mi East 5.8 mph - N/A   Scattered Clouds
5:53 PM 91.0 °F 94.3 °F 66.9 °F 45% 29.84 in 10.0 mi SSE 6.9 mph - N/A   Mostly Cloudy
6:43 PM 84.2 °F 88.4 °F 69.8 °F 62% 29.87 in 10.0 mi South 10.4 mph - N/A Thunderstorm Mostly Cloudy
6:53 PM 84.9 °F 88.8 °F 69.1 °F 59% 29.87 in 10.0 mi South 9.2 mph - N/A   Mostly Cloudy
7:11 PM 84.2 °F 88.4 °F 69.8 °F 62% 29.87 in 10.0 mi South 8.1 mph - N/A Thunderstorm Thunderstorm
7:43 PM 82.4 °F 86.3 °F 69.8 °F 66% 29.88 in 10.0 mi WSW 5.8 mph - N/A   Overcast
7:53 PM 82.0 °F 85.5 °F 69.1 °F 65% 29.88 in 10.0 mi SSW 3.5 mph - N/A   Overcast
8:53 PM 78.1 °F - 71.1 °F 79% 29.89 in 10.0 mi West 3.5 mph - N/A Thunderstorm Overcast
9:24 PM 75.2 °F - 68.0 °F 78% 29.92 in 10.0 mi NNW 12.7 mph - N/A Thunderstorm Thunderstorm
9:40 PM 73.4 °F - 68.0 °F 83% 29.92 in 10.0 mi North 12.7 mph - N/A Thunderstorm Thunderstorm
9:49 PM 73.4 °F - 68.0 °F 83% 29.93 in 10.0 mi North 11.5 mph - N/A Thunderstorm Thunderstorm
9:53 PM 73.9 °F - 68.0 °F 82% 29.92 in 4.0 mi North 12.7 mph - N/A Thunderstorm Unknown
9:56 PM 73.4 °F - 69.8 °F 88% 29.93 in 4.0 mi North 13.8 mph - 0.00 in Rain , Thunderstorm Heavy Thunderstorms and Rain
10:02 PM 71.6 °F - 69.8 °F 94% 29.92 in 1.8 mi North 16.1 mph - 0.16 in Rain , Thunderstorm Heavy Thunderstorms and Rain
10:14 PM 71.6 °F - 69.8 °F 94% 29.94 in 2.5 mi ENE 13.8 mph 19.6 mph 0.29 in Rain Heavy Rain
10:23 PM 73.4 °F - 68.0 °F 83% 29.94 in 3.0 mi NE 11.5 mph 21.9 mph 0.36 in Rain Heavy Rain
10:28 PM 71.6 °F - 68.0 °F 88% 29.94 in 2.5 mi NNE 12.7 mph - 0.42 in Rain Heavy Rain
10:32 PM 71.6 °F - 68.0 °F 88% 29.94 in 2.5 mi NE 12.7 mph - 0.46 in Rain , Thunderstorm Heavy Rain
10:40 PM 71.6 °F - 66.2 °F 83% 29.92 in 6.0 mi NE 15.0 mph - 0.47 in Rain , Thunderstorm Light Rain
10:53 PM 71.1 °F - 66.9 °F 87% 29.93 in 5.0 mi ENE 5.8 mph - 0.49 in Rain , Thunderstorm Heavy Thunderstorms and Rain
11:08 PM 69.8 °F - 68.0 °F 94% 29.93 in 2.0 mi North 4.6 mph - 0.18 in Rain , Thunderstorm Heavy Rain
11:15 PM 69.8 °F - 66.2 °F 88% 29.93 in 2.5 mi North 5.8 mph - 0.23 in Rain , Thunderstorm Heavy Rain
11:19 PM 69.8 °F - 68.0 °F 94% 29.93 in 2.5 mi North 6.9 mph - 0.28 in Rain , Thunderstorm Heavy Rain
11:27 PM 69.8 °F - 68.0 °F 94% 29.93 in 5.0 mi North 5.8 mph - 0.31 in Rain , Thunderstorm Rain
11:38 PM 69.8 °F - 68.0 °F 94% 29.94 in 6.0 mi Calm Calm - 0.32 in Rain , Thunderstorm Rain
11:47 PM 69.8 °F - 66.2 °F 88% 29.94 in 1.8 mi Calm Calm - 0.37 in Rain , Thunderstorm Heavy Rain
11:53 PM 70.0 °F - 66.9 °F 90% 29.93 in 1.5 mi East 5.8 mph - 0.45 in Rain , Thunderstorm Heavy Rain
11:59 PM 69.8 °F - 66.2 °F 88% 29.93 in 3.0 mi East 5.8 mph - 0.04 in Rain , Thunderstorm Rain